CAPE
29 816 923 1037 971 1122 1383 1358 1822 975 1558 1135 1508 1407 1271 1183 1363 1724 1997 2104 2160 1519 1956 1597 1871 1898 1992 2015 2082 2035 1776 2048 1901 1747 1625 1512 1627 1740 1783 1719 1630 1455 1310
97 914 1069 1168 1027 1120 1245 1429 1556 1185 1444 1450 1422 1291 1309 1728 2045 1886 2059 2079 2193 1939 1969 2089 2266 2160 2032 1961 2134 2042 2040 1948 1724 1641 1512 1385 1476 1603 1683 1490 1570 1735 1791
92 776 1314 951 1055 1033 1245 1269 1205 1464 1497 1343 1330 1381 1728 1866 1881 2038 2087 1787 1992 1749 1238 1733 2010 1955 1837 1602 1384 1583 1909 2052 2006 1610 1591 1535 1538 1672 1661 1735 1853 1919 1794
127 663 1177 736 1107 1014 1219 1334 1180 1227 1660 1209 1389 1583 1616 1686 1720 1924 1704 1692 1659 1909 1987 2090 1968 1484 808 893 1393 1569 1288 1817 1615 1497 1185 1274 1322 1565 1353 1665 1873 1778 1825
253 656 1123 864 1213 937 901 1204 1281 1085 1271 1624 1388 1389 1428 1611 2064 1853 1926 1890 1643 1416 2017 2195 2319 2014 1841 1731 1080 1317 1237 761 286 224 952 1070 1415 1691 1851 1790 1844 1774 1686
339 755 1673 1258 1000 901 958 825 1417 1194 1100 1046 1178 1345 1363 1377 1322 1536 1755 1790 1585 1677 1265 1530 1860 1442 1048 1504 1635 1315 1200 136 384 737 1039 1068 1239 2051 2004 2089 1492 1832 1919
577 1431 1776 1228 1175 842 881 877 1475 1417 1280 1234 1137 1169 1158 1127 1148 1265 906 1304 1722 1773 1724 1503 1134 1339 1114 673 937 768 872 1179 310 687 1322 578 1636 2058 2128 2085 1792 1880 1768
605 1586 1592 1540 1238 1001 915 1122 1579 1610 1420 1408 1205 1122 1136 1000 980 1150 1370 1331 939 1457 1604 1259 937 953 1188 1082 967 920 656 1052 684 600 1124 551 1444 2214 2112 1741 1628 1919 2184
704 995 1577 1454 1337 1160 1281 1421 1625 1706 1609 1468 1384 1326 1339 1548 1287 1037 906 585 1151 1011 998 1284 1153 881 938 741 520 494 641 980 687 354 571 685 976 1488 1885 2083 2258 2199 1988
832 984 1097 1419 1472 1498 1530 1569 1681 1706 1612 1488 1465 1453 1242 1103 1084 863 306 266 738 454 692 1152 1125 932 621 470 479 532 925 675 541 316 92 87 553 949 995 1464 1792 1809 1779
604 793 1016 1026 1323 1357 1449 1586 1686 1757 1663 1525 1454 1398 1410 1012 740 976 0 0 3 544 493 435 654 762 818 837 1151 670 673 387 519 219 67 10 218 770 912 835 989 1251 1293
338 496 767 935 933 1009 1350 1458 1491 1506 1584 1486 1316 1127 1224 996 572 153 52 1 30 272 836 553 500 654 799 674 621 1054 907 270 433 179 211 400 74 629 1168 986 903 708 1026
584 369 464 516 642 477 520 789 1036 1179 1236 1129 945 790 944 701 348 133 0 0 0 10 391 417 427 575 390 401 304 251 540 335 271 286 411 663 686 535 1311 1271 1043 809 793
732 521 375 345 257 215 470 526 439 454 703 585 451 534 482 344 72 26 3 3 2 1 23 88 0 95 124 119 42 171 345 370 331 345 366 527 426 336 842 1313 1196 1274 906
738 676 507 422 320 215 323 480 460 266 315 292 297 485 556 245 55 13 14 51 35 21 38 5 0 0 77 101 124 175 182 261 202 294 263 535 336 261 366 716 883 1328 1732
713 713 677 655 566 325 443 444 373 236 284 256 268 389 532 293 48 70 90 85 76 63 75 30 0 36 40 91 94 141 178 241 184 246 254 285 394 288 279 458 501 733 1226
451 590 559 537 418 400 465 538 618 453 307 308 491 446 311 178 118 85 79 114 117 137 123 86 41 2 49 166 133 61 138 199 202 181 202 245 352 284 309 305 398 502 946
458 567 499 511 350 470 783 1391 782 543 348 282 187 262 372 233 171 204 208 149 132 242 190 183 102 67 37 52 206 123 289 232 246 238 285 257 314 282 370 373 255 397 632
307 551 578 487 383 492 765 810 1046 847 479 538 337 280 164 539 529 436 325 145 18 18 179 88 15 88 177 80 32 138 187 484 358 177 178 209 293 298 218 332 321 462 583
449 702 801 773 637 598 656 871 839 999 854 585 505 572 510 716 592 497 276 165 177 15 0 33 0 84 168 251 233 83 199 309 360 265 138 237 367 409 359 362 415 570 561
474 449 150 885 1085 1068 1128 1153 850 702 821 991 842 750 736 637 600 590 474 450 363 198 218 292 288 191 161 123 196 15 23 191 183 436 222 210 331 422 403 339 353 501 666
257 204 3 173 1144 1274 1367 1345 1196 971 983 1046 1035 785 639 682 592 453 452 457 525 452 423 427 470 258 267 356 205 111 44 22 51 144 242 325 212 367 419 465 427 515 582
10 193 44 654 1119 1432 1484 1380 1379 1206 1026 1007 954 888 777 677 462 323 187 201 385 604 386 391 663 398 90 269 416 189 44 1 0 17 37 189 275 224 220 304 416 524 568
38 165 131 632 329 1581 1584 1366 1405 1182 1011 995 922 857 819 912 723 481 362 353 492 503 552 654 636 378 269 100 136 389 214 30 59 0 44 69 184 185 179 161 270 300 513
200 294 330 642 662 1725 1497 1650 1369 1119 1316 1214 925 793 752 637 730 442 394 593 583 522 498 590 640 607 399 264 277 173 321 335 185 68 12 44 22 12 20 30 123 272 280
817 978 832 1048 1430 2172 1463 1717 1696 1615 1320 1097 920 740 537 573 390 219 172 121 210 483 543 510 444 516 490 455 335 382 146 304 388 190 125 40 65 52 27 15 62 259 176
CIN
-90 -23 -1 -0 -5 -3 -0 -2 -0 -34 -15 -47 -23 -23 -29 -34 -21 -10 -0 -0 -0 -0 -0 -0 -0 -0 -0 -0 -0 -0 -0 -0 -0 -0 -0 -0 -0 -0 -0 -0 -0 -0 -3
-192 -31 -10 -1 -8 -11 -8 -9 -8 -17 -12 -10 -11 -21 -27 -5 -2 -5 -0 -0 -0 -0 -0 -0 -0 -0 -0 -0 -0 -0 -0 -1 -0 -0 -0 -0 -0 -0 -0 -0 -0 -0 -0
-202 -57 -11 -28 -18 -17 -6 -10 -12 -7 -3 -6 -14 -17 -2 -0 -0 -0 -0 -1 -0 -0 -17 -0 -0 -0 -0 -5 -12 -5 -0 -0 -0 -0 -3 -2 -0 -0 -0 -0 -0 -0 -0
-216 -91 -31 -61 -28 -28 -22 -12 -12 -8 -0 -20 -8 -2 -0 -0 -0 -0 -1 -0 -1 -0 -0 -0 -1 -10 -46 -36 -13 -9 -19 -0 -1 -3 -13 -2 -0 -0 -0 -0 -0 -0 -0
-179 -102 -46 -57 -29 -45 -47 -23 -15 -18 -9 -1 -2 -3 -0 -0 -0 -0 -0 -0 -0 -10 -0 -0 -0 -2 -8 -3 -26 -16 -10 -25 -94 -102 -35 -22 -1 -0 -0 -0 -0 -0 -0
-168 -92 -13 -33 -49 -53 -42 -43 -9 -15 -18 -12 -12 -4 -1 -0 -0 -0 -0 -0 -2 -2 -11 -3 -0 -18 -31 -15 -5 -17 -9 -108 -76 -61 -36 -31 -28 -0 -0 -0 -0 -0 -0
-135 -28 -7 -37 -40 -62 -52 -34 -2 -5 -8 -6 -9 -4 -1 -1 -1 -0 -7 -1 -0 -0 -1 -8 -26 -14 -21 -41 -30 -40 -24 -8 -73 -48 -27 -63 -19 -7 -0 -0 -0 -0 -0
-165 -30 -17 -12 -33 -53 -59 -19 -0 -1 -4 -2 -2 -2 -0 -9 -4 -0 -0 -0 -4 -0 -0 -13 -22 -30 -17 -19 -27 -24 -35 -21 -34 -62 -34 -61 -20 -0 -0 -0 -0 -0 -0
-155 -115 -38 -25 -19 -37 -32 -11 -0 -0 -0 -1 -0 -0 -0 -0 -0 -0 -1 -7 -0 -0 -0 -1 -8 -25 -25 -31 -34 -32 -24 -23 -42 -78 -70 -66 -54 -22 -2 -0 -0 -0 -0
-163 -132 -109 -55 -28 -18 -14 -6 -0 -0 -0 -0 -0 -0 -0 -2 -0 -4 -30 -19 -2 -4 -1 -0 -0 -8 -25 -37 -40 -31 -14 -32 -41 -87 -131 -121 -68 -57 -50 -22 -2 -0 -0
-162 -145 -122 -103 -60 -48 -31 -8 -3 -0 -0 -0 -1 -4 -0 -8 -28 -3 -0 -0 -26 -3 -0 -4 -2 -4 -6 -7 -9 -29 -26 -24 -43 -72 -122 -141 -101 -48 -57 -67 -49 -33 -21
-192 -180 -143 -107 -98 -82 -41 -28 -21 -22 -13 -10 -17 -25 -8 -8 -32 -57 -46 -15 -54 -21 -0 -0 -3 -1 -0 -12 -18 -2 -20 -36 -43 -70 -81 -77 -64 -52 -32 -43 -45 -78 -54
-170 -211 -193 -153 -130 -141 -127 -104 -66 -48 -33 -41 -47 -46 -27 -32 -45 -68 -0 -0 -0 -10 -18 -3 -6 -0 -11 -17 -33 -47 -35 -37 -47 -54 -53 -35 -42 -52 -16 -25 -30 -55 -75
-174 -192 -217 -193 -182 -186 -139 -130 -130 -128 -78 -81 -93 -74 -72 -71 -92 -106 -181 -163 -176 -29 -81 -39 -0 -34 -34 -27 -48 -47 -39 -30 -37 -52 -49 -35 -23 -26 -16 -9 -15 -19 -51
-147 -170 -213 -197 -182 -191 -168 -145 -146 -161 -138 -109 -97 -87 -66 -84 -123 -131 -145 -113 -100 -118 -93 -116 -0 -0 -55 -36 -40 -47 -50 -42 -40 -55 -63 -45 -33 -33 -33 -17 -14 -5 -3
-131 -153 -160 -150 -160 -187 -174 -170 -160 -166 -136 -118 -106 -90 -76 -77 -122 -130 -116 -84 -91 -101 -76 -92 -0 -74 -67 -36 -35 -38 -49 -48 -50 -52 -56 -55 -24 -38 -35 -33 -28 -13 -3
-147 -156 -172 -151 -157 -149 -135 -111 -105 -130 -151 -114 -76 -78 -81 -93 -84 -111 -96 -93 -88 -90 -77 -72 -72 -18 -77 -31 -26 -43 -47 -48 -46 -46 -47 -56 -43 -28 -34 -32 -21 -16 -5
-110 -134 -160 -152 -156 -119 -74 -55 -70 -119 -138 -103 -112 -101 -95 -96 -88 -100 -90 -110 -85 -60 -52 -54 -62 -64 -85 -61 -22 -27 -31 -36 -32 -39 -43 -53 -55 -51 -37 -35 -32 -27 -19
-134 -120 -122 -129 -169 -113 -76 -57 -56 -78 -112 -87 -87 -115 -141 -80 -71 -71 -69 -102 -123 -143 -57 -54 -67 -56 -44 -61 -69 -37 -49 -30 -37 -35 -36 -39 -63 -62 -60 -49 -39 -33 -26
-153 -86 -97 -121 -89 -109 -95 -73 -63 -68 -64 -84 -91 -90 -82 -65 -76 -68 -83 -84 -71 -122 -0 -56 -0 -59 -61 -36 -20 -37 -34 -37 -43 -33 -34 -41 -43 -55 -62 -68 -55 -54 -55
-161 -151 -141 -150 -85 -84 -84 -74 -79 -65 -60 -65 -78 -71 -56 -63 -75 -74 -90 -76 -82 -87 -57 -50 -40 -48 -56 -57 -24 -52 -48 -49 -44 -28 -42 -47 -41 -58 -54 -72 -70 -69 -69
-187 -215 -85 -294 -122 -83 -83 -76 -73 -69 -55 -40 -35 -40 -60 -59 -71 -75 -59 -75 -74 -72 -68 -49 -38 -49 -53 -39 -37 -41 -33 -55 -69 -57 -40 -39 -48 -56 -50 -55 -59 -62 -70
-69 -277 -320 -245 -151 -96 -80 -82 -65 -61 -55 -38 -41 -37 -44 -58 -86 -86 -103 -87 -74 -68 -79 -55 -37 -48 -60 -53 -42 -33 -40 -7 -0 -111 -95 -56 -47 -56 -66 -70 -73 -64 -66
-334 -351 -274 -195 -251 -96 -85 -59 -36 -24 -24 -45 -32 -27 -36 -39 -61 -78 -100 -97 -59 -56 -61 -51 -40 -49 -52 -66 -67 -53 -54 -67 -27 -0 -92 -81 -80 -69 -77 -77 -83 -78 -83
-343 -314 -301 -266 -222 -94 -67 -39 -31 -26 -26 -25 -36 -20 -38 -41 -79 -85 -87 -58 -49 -48 -48 -41 -29 -28 -45 -47 -46 -53 -32 -37 -52 -48 -22 -31 -89 -137 -181 -134 -92 -83 -84
-285 -248 -251 -189 -94 -35 -55 -17 -24 -30 -46 -50 -58 -54 -56 -35 -52 -66 -78 -112 -97 -50 -28 -35 -40 -26 -31 -37 -33 -44 -60 -18 -22 -24 -32 -52 -62 -87 -151 -43 -112 -92 -108
Wind_Speed
33 33 33 32 31 28 24 25 23 23 22 23 25 26 26 25 24 21 20 22 22 18 18 22 23 23 23 23 21 21 24 27 26 25 26 27 28 29 29 29 29 29 28
33 33 32 31 30 27 24 23 21 21 23 26 26 25 24 22 20 20 18 19 22 22 19 18 21 25 25 25 25 23 24 23 26 27 28 28 28 28 28 29 28 29 28
33 33 32 31 29 27 24 22 22 23 24 24 24 25 24 22 22 21 20 20 21 20 18 16 17 22 24 24 23 25 25 26 24 25 26 27 26 27 27 28 28 28 28
32 33 32 31 29 28 26 24 23 23 22 23 24 24 25 24 23 23 23 22 21 19 17 15 16 17 21 21 21 24 25 26 24 25 26 25 24 26 27 27 27 27 27
29 31 31 30 29 27 25 24 24 23 23 22 23 24 24 23 23 23 23 22 21 20 18 16 14 14 17 16 18 18 22 23 22 23 23 24 23 25 25 26 26 26 27
26 27 29 28 27 26 24 23 22 22 22 22 23 23 23 23 22 22 21 21 20 20 18 17 16 16 17 17 12 9 20 11 14 20 21 23 22 23 24 25 24 25 26
24 24 25 26 25 25 24 22 21 21 22 21 21 21 21 21 21 20 19 19 19 18 17 17 16 18 19 16 15 5 16 7 9 17 18 20 20 19 20 21 23 24 25
24 23 23 23 23 24 23 22 21 21 21 20 20 20 19 18 18 18 17 16 17 18 17 17 17 17 20 20 16 12 16 14 9 10 15 18 17 17 18 20 21 23 23
24 23 22 22 21 22 22 21 21 20 20 20 18 18 17 16 15 13 14 14 15 16 17 16 17 17 17 19 20 21 18 11 9 9 18 20 15 15 17 17 19 21 21
23 22 21 21 20 20 20 20 19 19 18 17 16 15 14 14 14 12 10 9 15 16 16 14 16 18 19 20 20 23 24 24 7 7 10 16 12 16 18 17 17 20 20
20 20 20 20 20 18 18 19 19 18 17 17 15 14 14 12 12 7 9 18 21 19 18 17 17 20 20 21 22 23 24 23 22 7 7 11 16 17 17 20 16 18 20
19 19 18 18 19 17 16 17 17 17 17 17 16 16 13 11 11 16 18 20 20 21 19 18 18 20 21 21 22 22 23 24 19 22 23 20 20 18 18 18 18 18 18
20 18 19 21 19 17 16 17 17 16 17 17 16 16 12 14 17 18 16 18 19 19 20 18 19 20 21 20 22 22 21 24 24 20 21 19 15 18 18 18 18 19 20
17 18 20 21 18 17 16 17 16 15 17 17 19 16 14 14 15 15 18 17 14 17 18 20 20 21 20 20 20 22 22 21 21 23 19 21 18 18 19 19 19 21 20
17 16 17 19 19 17 17 15 14 15 16 17 17 17 15 14 15 15 17 14 15 18 17 20 21 22 21 19 21 21 22 21 20 20 19 22 20 19 21 20 23 24 23
18 17 16 17 16 16 15 13 13 14 15 15 16 17 16 14 13 15 15 12 13 16 19 20 18 19 20 19 21 20 19 19 20 20 21 21 21 20 22 24 24 25 26
17 17 15 15 14 14 12 13 11 13 11 13 14 14 18 15 12 14 15 16 17 14 17 19 20 19 19 18 19 19 18 19 18 18 18 19 20 20 19 22 23 24 24
14 14 15 13 14 13 11 11 8 9 11 12 7 11 15 17 16 14 15 16 15 13 18 19 18 18 21 19 20 20 20 18 17 16 17 15 15 17 20 20 22 23 24
3 9 10 12 17 16 13 9 6 7 8 9 11 12 14 15 17 15 14 16 16 18 18 18 18 19 21 21 20 21 21 22 20 15 18 17 14 17 17 19 20 20 23
6 9 12 12 16 17 14 9 6 3 3 5 8 14 12 11 12 11 13 14 16 19 20 17 18 18 19 20 17 19 27 24 23 20 17 18 16 16 16 15 15 18 20
18 22 17 17 20 16 11 9 7 7 3 4 8 12 8 9 7 9 9 14 13 16 20 16 19 18 18 20 19 19 24 23 21 19 17 15 17 17 17 15 14 12 17
16 18 17 23 21 18 14 11 4 4 5 2 1 5 7 8 9 10 11 13 13 12 17 16 16 18 18 15 15 17 15 15 18 19 15 13 16 12 15 17 16 13 12
15 18 17 21 19 19 16 10 4 4 9 10 3 8 9 8 9 10 10 4 6 8 14 16 18 15 16 6 12 9 13 11 10 8 9 17 12 11 10 15 15 12 11
17 17 17 17 16 15 15 9 8 6 6 8 4 8 7 11 11 11 24 21 8 5 10 20 4 11 3 18 12 20 20 7 9 9 10 12 15 15 16 11 13 7 8
17 15 16 15 14 14 12 7 4 2 5 3 6 8 22 26 29 31 31 26 22 17 9 11 10 2 5 2 3 15 8 20 13 7 12 7 6 15 18 15 7 11 12
16 15 14 13 13 11 10 7 4 6 21 30 10 24 25 20 16 32 36 35 30 28 15 16 9 10 4 3 4 4 4 15 4 4 7 13 9 5 8 9 13 9 10
Wind_Direction
133 130 128 123 114 103 88 84 73 72 69 72 75 81 79 74 70 62 57 59 62 53 52 64 67 68 67 66 64 64 71 79 74 72 77 81 89 91 90 94 92 98 93
127 129 127 123 114 102 92 82 74 69 77 84 81 79 76 68 61 58 52 52 64 65 57 56 65 76 77 78 76 71 75 72 78 81 87 89 92 91 92 98 97 97 94
126 130 128 125 116 107 93 83 80 83 82 83 83 85 81 72 68 66 59 58 65 61 58 52 57 73 80 77 75 81 85 88 78 78 82 90 86 92 94 98 99 96 96
126 130 130 128 121 113 103 95 91 86 82 87 89 91 92 91 85 81 78 74 69 62 56 52 58 60 75 74 75 85 93 98 83 89 98 94 85 93 98 98 96 97 100
123 130 133 131 128 122 113 104 101 95 93 91 98 101 102 98 92 94 91 84 78 78 68 63 53 52 64 63 71 73 99 134 146 109 93 95 87 96 98 99 103 101 103
119 126 132 131 131 129 124 113 105 102 103 101 103 104 108 102 98 96 90 88 87 91 82 76 71 78 82 77 51 20 104 24 49 98 96 105 92 97 105 107 99 100 105
117 121 126 130 129 131 130 123 112 109 111 109 108 109 110 108 106 101 96 89 94 96 88 94 88 102 105 89 82 18 221 336 8 88 97 102 99 83 85 92 102 103 107
119 121 124 125 127 129 128 126 124 121 120 115 114 117 116 114 113 112 107 99 105 112 105 111 116 111 136 130 100 74 241 263 332 51 89 106 100 92 90 102 106 110 107
120 122 124 125 126 129 128 128 128 126 127 126 121 124 121 121 112 98 107 122 127 132 125 125 132 130 131 142 156 189 247 118 37 54 125 130 99 94 108 99 109 115 113
116 122 127 128 128 129 130 132 131 130 131 127 123 121 123 123 128 124 87 51 149 149 147 133 140 153 158 172 184 208 207 204 5 62 112 136 109 115 125 119 117 134 128
112 121 127 132 131 129 128 134 136 137 135 136 130 128 133 128 140 78 91 205 194 180 170 161 161 173 177 185 190 199 205 187 177 243 105 130 143 136 132 142 129 136 143
120 124 129 132 133 130 128 134 137 139 142 146 147 148 136 121 139 172 192 195 199 188 171 167 170 182 185 185 191 188 193 199 173 180 183 173 167 159 151 149 149 143 145
130 124 133 138 139 138 136 143 140 145 149 154 152 155 129 141 169 159 188 249 179 180 195 174 174 181 186 182 185 184 183 199 195 177 180 174 160 166 165 161 160 159 159
126 130 138 142 141 144 140 142 145 144 152 157 163 155 145 153 157 174 190 182 143 169 177 186 182 189 185 179 179 186 190 188 186 190 177 180 174 173 173 175 173 175 170
132 131 137 141 143 142 146 142 144 149 150 153 161 162 151 150 157 159 178 164 164 181 168 183 186 192 186 178 188 186 191 183 176 175 173 184 179 177 181 181 184 187 184
141 137 136 145 144 146 145 140 144 148 151 150 161 168 162 155 155 166 170 151 161 169 183 188 173 178 183 178 184 187 181 175 182 180 189 189 181 179 186 191 190 194 195
137 135 135 145 143 148 142 145 144 154 144 150 158 159 169 160 148 158 163 165 177 161 177 183 188 180 186 177 183 180 178 180 176 179 181 185 185 183 179 186 189 192 190
131 132 133 130 141 146 140 133 111 134 150 151 128 144 165 170 166 158 166 172 160 146 172 176 175 180 192 187 189 188 186 182 180 179 180 172 173 176 184 183 188 190 191
70 90 121 133 145 148 147 141 112 118 141 154 157 162 169 171 173 169 165 170 165 170 169 178 185 183 190 193 192 193 192 198 190 174 181 181 173 176 175 183 186 185 188
66 99 138 142 151 155 149 139 126 74 124 144 157 175 168 163 162 154 160 164 165 176 185 181 181 183 186 191 182 191 217 209 209 194 185 182 182 181 177 174 174 180 182
137 165 167 152 166 155 144 139 133 144 108 150 175 182 179 173 165 161 158 165 158 170 187 174 187 182 186 188 198 200 210 207 200 194 187 184 186 185 184 180 176 172 179
145 161 171 171 168 162 156 151 121 135 160 166 236 197 193 191 184 180 178 174 168 167 177 171 172 182 180 158 166 180 167 178 193 195 186 180 190 180 187 188 188 183 181
153 162 152 165 169 166 161 142 83 20 331 325 253 299 211 216 212 200 191 208 186 171 175 175 183 174 176 120 155 352 151 137 71 118 167 189 180 181 186 190 192 190 193
159 162 156 161 165 157 160 143 160 171 185 202 264 290 245 277 271 267 279 284 274 267 199 190 170 165 138 187 308 193 199 326 41 103 132 167 184 191 192 188 191 199 201
154 150 158 163 157 154 144 124 114 78 203 279 281 275 304 297 283 277 274 275 278 280 276 288 291 215 165 173 315 309 187 203 185 142 185 117 106 203 199 195 193 192 289
152 147 140 133 138 130 130 119 69 27 347 324 312 316 304 290 278 281 265 263 268 270 279 279 281 289 270 271 208 302 312 313 358 11 168 197 175 160 156 180 196 192 197